Wheaton NDB, MN

1:03 AM CDT on May 28, 2018 (GMT -0500)
Wheaton Municipal

Weather History for KETH - June, 2013

Change the Weather History Date:

Thursday, June 27, 2013

  Actual Average Record
Temperature  
Mean Temperature 76 °F -  
Max Temperature 84 °F 82 °F 94 °F (1961)
Min Temperature 68 °F 56 °F 47 °F (1968)
Cooling Degree Days 11    
Growing Degree Days 26 (Base 50)    
Moisture  
Dew Point 60 °F    
Average Humidity 59    
Maximum Humidity 83    
Minimum Humidity 37    
Precipitation  
Precipitation 0.00 in - - ()
Sea Level Pressure  
Sea Level Pressure 29.89 in    
Wind  
Wind Speed 11 mph (WNW)    
Max Wind Speed 23 mph    
Max Gust Speed 30 mph    
Visibility 10 miles    
Events      
Averages and records for this station are not official NWS values.
T = Trace of Precipitation, MM = Missing Value Source: NWS Daily Summary

Daily Weather History Graph

Daily Weather History Graph

Search for Another Location

Airport or City:

Astronomy

Jun. 27, 2013 Rise Set
Actual Time 5:38 AM CDT 9:20 PM CDT
Civil Twilight 5:00 AM CDT 9:58 PM CDT
Nautical Twilight 4:08 AM CDT 10:49 PM CDT
Astronomical Twilight 2:58 AM CDT 11:59 PM CDT
Moon 11:59 PM CDT (6/27) 10:57 AM CDT (6/27)
Length of Visible Light 16h 58m
Length of Day
15h 41m
Waning Gibbous, 76% of the Moon is Illuminated
Jun 27
Waning Gibbous
Jun 29
Last Quarter
Jul 8
New
Jul 15
First Quarter
Jul 22
Full

Hourly Weather History & Observations

Time (CDT) Temp. Heat Index Dew Point Humidity Pressure Visibility Wind Dir Wind Speed Gust Speed Precip Events Conditions
12:15 AM 69.8 °F - 64.4 °F 83% 29.83 in 10.0 mi SW 6.9 mph - N/A   Clear
12:35 AM 69.8 °F - 64.4 °F 83% 29.83 in 10.0 mi WSW 6.9 mph - N/A   Clear
12:55 AM 71.6 °F - 64.4 °F 78% 29.84 in 10.0 mi WSW 9.2 mph - N/A   Clear
1:15 AM 69.8 °F - 64.4 °F 83% 29.85 in 10.0 mi WSW 5.8 mph - N/A   Clear
1:34 AM 69.8 °F - 64.4 °F 83% 29.85 in 10.0 mi WSW 6.9 mph - N/A   Scattered Clouds
1:54 AM 71.6 °F - 64.4 °F 78% 29.85 in 10.0 mi West 5.8 mph - N/A   Scattered Clouds
2:15 AM 71.6 °F - 64.4 °F 78% 29.85 in 10.0 mi West 6.9 mph - N/A   Clear
2:35 AM 71.6 °F - 64.4 °F 78% 29.86 in 10.0 mi West 9.2 mph - N/A   Clear
2:55 AM 71.6 °F - 64.4 °F 78% 29.86 in 10.0 mi West 8.1 mph - N/A   Clear
3:15 AM 71.6 °F - 64.4 °F 78% 29.86 in 10.0 mi West 9.2 mph - N/A   Clear
3:35 AM 69.8 °F - 64.4 °F 83% 29.87 in 10.0 mi West 9.2 mph - N/A   Clear
3:55 AM 69.8 °F - 62.6 °F 78% 29.87 in 10.0 mi West 6.9 mph - N/A   Clear
4:15 AM 69.8 °F - 62.6 °F 78% 29.87 in 10.0 mi West 8.1 mph - N/A   Clear
4:34 AM 69.8 °F - 62.6 °F 78% 29.86 in 10.0 mi West 8.1 mph - N/A   Clear
4:54 AM 69.8 °F - 62.6 °F 78% 29.87 in 10.0 mi West 8.1 mph - N/A   Clear
5:15 AM 69.8 °F - 62.6 °F 78% 29.87 in 10.0 mi West 8.1 mph - N/A   Clear
5:34 AM 69.8 °F - 60.8 °F 73% 29.87 in 10.0 mi West 10.4 mph - N/A   Clear
5:55 AM 68.0 °F - 60.8 °F 78% 29.87 in 10.0 mi West 10.4 mph - N/A   Clear
6:15 AM 69.8 °F - 60.8 °F 73% 29.87 in 10.0 mi West 9.2 mph - N/A   Clear
6:34 AM 69.8 °F - 60.8 °F 73% 29.88 in 10.0 mi West 10.4 mph - N/A   Clear
6:54 AM 69.8 °F - 60.8 °F 73% 29.89 in 10.0 mi West 8.1 mph - N/A   Clear
7:14 AM 69.8 °F - 60.8 °F 73% 29.89 in 10.0 mi West 10.4 mph 16.1 mph N/A   Clear
7:34 AM 69.8 °F - 60.8 °F 73% 29.89 in 10.0 mi West 10.4 mph - N/A   Clear
7:55 AM 71.6 °F - 60.8 °F 69% 29.90 in 10.0 mi West 11.5 mph - N/A   Clear
8:15 AM 73.4 °F - 60.8 °F 65% 29.90 in 10.0 mi West 11.5 mph - N/A   Clear
8:34 AM 73.4 °F - 60.8 °F 65% 29.90 in 10.0 mi West 11.5 mph - N/A   Clear
8:54 AM 73.4 °F - 62.6 °F 69% 29.90 in 10.0 mi West 11.5 mph - N/A   Clear
9:15 AM 75.2 °F - 62.6 °F 65% 29.90 in 10.0 mi West 12.7 mph - N/A   Clear
9:34 AM 75.2 °F - 62.6 °F 65% 29.90 in 10.0 mi WNW 15.0 mph 20.7 mph N/A   Clear
9:54 AM 75.2 °F - 62.6 °F 65% 29.90 in 10.0 mi WNW 16.1 mph 21.9 mph N/A   Clear
10:15 AM 77.0 °F - 62.6 °F 61% 29.90 in 10.0 mi NW 15.0 mph 21.9 mph N/A   Clear
10:34 AM 78.8 °F - 60.8 °F 54% 29.90 in 10.0 mi NW 16.1 mph 23.0 mph N/A   Clear
10:54 AM 78.8 °F - 62.6 °F 57% 29.90 in 10.0 mi WNW 16.1 mph 20.7 mph N/A   Clear
11:15 AM 78.8 °F - 60.8 °F 54% 29.90 in 10.0 mi WNW 17.3 mph 23.0 mph N/A   Clear
11:34 AM 78.8 °F - 60.8 °F 54% 29.91 in 10.0 mi NW 17.3 mph 27.6 mph N/A   Clear
11:55 AM 80.6 °F 81.5 °F 60.8 °F 51% 29.91 in 10.0 mi WNW 16.1 mph 23.0 mph N/A   Clear
12:14 PM 80.6 °F 81.5 °F 60.8 °F 51% 29.91 in 10.0 mi WNW 15.0 mph 24.2 mph N/A   Clear
12:34 PM 80.6 °F 81.5 °F 60.8 °F 51% 29.91 in 10.0 mi West 16.1 mph 20.7 mph N/A   Clear
12:55 PM 80.6 °F 81.5 °F 60.8 °F 51% 29.91 in 10.0 mi WNW 13.8 mph 21.9 mph N/A   Clear
1:14 PM 82.4 °F 82.9 °F 60.8 °F 48% 29.91 in 10.0 mi West 12.7 mph 20.7 mph N/A   Clear
1:35 PM 80.6 °F 81.5 °F 60.8 °F 51% 29.92 in 10.0 mi WNW 12.7 mph 24.2 mph N/A   Scattered Clouds
1:55 PM 82.4 °F 82.9 °F 60.8 °F 48% 29.91 in 10.0 mi WNW 13.8 mph 25.3 mph N/A   Scattered Clouds
2:15 PM 82.4 °F 82.9 °F 60.8 °F 48% 29.91 in 10.0 mi WNW 11.5 mph 21.9 mph N/A   Scattered Clouds
2:35 PM 82.4 °F 82.0 °F 57.2 °F 42% 29.91 in 10.0 mi WNW 12.7 mph 20.7 mph N/A   Clear
2:54 PM 82.4 °F 82.0 °F 57.2 °F 42% 29.90 in 10.0 mi West 13.8 mph 23.0 mph N/A   Scattered Clouds
3:15 PM 82.4 °F 82.9 °F 60.8 °F 48% 29.90 in 10.0 mi West 15.0 mph 21.9 mph N/A   Scattered Clouds
3:34 PM 82.4 °F 82.0 °F 57.2 °F 42% 29.90 in 10.0 mi WNW 11.5 mph 18.4 mph N/A   Scattered Clouds
3:54 PM 82.4 °F 82.0 °F 57.2 °F 42% 29.90 in 10.0 mi West 19.6 mph 26.5 mph N/A   Clear
4:15 PM 84.2 °F 83.5 °F 57.2 °F 40% 29.89 in 10.0 mi West 17.3 mph 26.5 mph N/A   Clear
4:35 PM 84.2 °F 83.5 °F 57.2 °F 40% 29.89 in 10.0 mi West 19.6 mph 25.3 mph N/A   Scattered Clouds
4:55 PM 82.4 °F 81.7 °F 55.4 °F 39% 29.89 in 10.0 mi WNW 18.4 mph 25.3 mph N/A   Scattered Clouds
5:14 PM 84.2 °F 83.0 °F 55.4 °F 37% 29.89 in 10.0 mi WNW 18.4 mph 29.9 mph N/A   Scattered Clouds
5:35 PM 84.2 °F 83.0 °F 55.4 °F 37% 29.88 in 10.0 mi West 19.6 mph 27.6 mph N/A   Scattered Clouds
5:55 PM 84.2 °F 83.0 °F 55.4 °F 37% 29.88 in 10.0 mi WNW 18.4 mph 25.3 mph N/A   Clear
6:15 PM 82.4 °F 81.7 °F 55.4 °F 39% 29.88 in 10.0 mi WNW 20.7 mph 28.8 mph N/A   Clear
6:34 PM 82.4 °F 81.7 °F 55.4 °F 39% 29.88 in 10.0 mi WNW 19.6 mph 26.5 mph N/A   Clear
6:54 PM 82.4 °F 81.4 °F 53.6 °F 37% 29.88 in 10.0 mi WNW 20.7 mph 27.6 mph N/A   Clear
7:14 PM 82.4 °F 81.4 °F 53.6 °F 37% 29.88 in 10.0 mi WNW 23.0 mph 28.8 mph N/A   Clear
7:34 PM 82.4 °F 81.4 °F 53.6 °F 37% 29.88 in 10.0 mi WNW 17.3 mph 23.0 mph N/A   Clear
7:54 PM 80.6 °F 80.5 °F 55.4 °F 42% 29.88 in 10.0 mi WNW 13.8 mph 23.0 mph N/A   Clear
8:15 PM 80.6 °F 80.5 °F 55.4 °F 42% 29.88 in 10.0 mi WNW 15.0 mph 19.6 mph N/A   Clear
8:34 PM 78.8 °F - 55.4 °F 44% 29.88 in 10.0 mi WNW 12.7 mph - N/A   Clear
8:54 PM 78.8 °F - 55.4 °F 44% 29.88 in 10.0 mi WNW 12.7 mph - N/A   Clear
9:14 PM 75.2 °F - 55.4 °F 50% 29.88 in 10.0 mi WNW 9.2 mph - N/A   Clear
9:34 PM 75.2 °F - 55.4 °F 50% 29.89 in 10.0 mi WNW 11.5 mph - N/A   Clear
9:54 PM 75.2 °F - 55.4 °F 50% 29.90 in 10.0 mi WNW 9.2 mph - N/A   Clear
10:14 PM 73.4 °F - 57.2 °F 57% 29.90 in 10.0 mi NW 8.1 mph - N/A   Clear
10:34 PM 73.4 °F - 57.2 °F 57% 29.90 in 10.0 mi WNW 8.1 mph - N/A   Clear
10:54 PM 73.4 °F - 57.2 °F 57% 29.91 in 10.0 mi WNW 6.9 mph - N/A   Clear
11:14 PM 71.6 °F - 57.2 °F 60% 29.91 in 10.0 mi NW 8.1 mph - N/A   Clear
11:34 PM 71.6 °F - 57.2 °F 60% 29.91 in 10.0 mi WNW 9.2 mph - N/A   Clear
11:54 PM 69.8 °F - 57.2 °F 64% 29.91 in 10.0 mi WNW 6.9 mph - N/A   Clear